User: anonymous   Login
Location: Unspecified
(0.0000°N, 0.0000°E)
Time: 07:19:13
(UTC+00:00)
Language:

Diademe D-1D - Orbit

View from above orbital plane
View from above orbital plane
View from above satellite
View from above satellite

Ground track
Ground track

The orbit is defined by the following mean orbital elements,

1 02680U          26106.45132742 +.00000000 +00000-0 +33395-3 0 00008
2 02680  39.4393  13.1534 0698892  50.8093 315.2627 13.41917529    01
Epoch (UTC): 16 April 2026 10:49:54
Eccentricity: 0.0698892
inclination: 39.4393°
perigee height: 579 km
apogee height: 1625 km
right ascension of ascending node: 13.1534°
argument of perigee: 50.8093°
revolutions per day: 13.41917529
mean anomaly at epoch: 315.2627°

The dashed part of the orbit path shows where the satellite is in the earth's shadow,  

DLR